GFSGL_850_spd_273.txt.gz
Wind_Speed
6 6 5 6 4 3 2 4 7 9 11 11 12 11 8 7 6 8 11 12 11 8 10 11 12 13 13 13 13 11 10 10 11 5 7 8 7 6 4 5 5 7 9
6 7 7 7 7 5 3 3 4 8 11 11 10 10 11 10 7 9 8 7 12 15 15 16 15 13 12 10 11 12 8 8 8 8 9 11 6 3 2 3 5 7 8
6 6 7 8 8 7 5 3 2 4 8 10 12 12 10 10 11 11 11 13 15 11 10 10 11 11 8 7 7 7 7 7 7 9 8 8 6 3 1 2 4 5 11
6 8 10 10 9 10 9 8 6 4 7 9 10 11 12 12 10 9 10 9 10 9 7 8 6 7 6 7 5 6 7 7 7 7 7 6 6 4 4 3 5 7 9
4 7 9 9 10 10 10 11 11 10 9 8 7 9 10 8 7 8 7 7 6 7 5 6 5 5 6 7 7 7 7 6 7 7 7 7 7 6 5 5 5 5 8
2 4 6 8 9 10 12 13 12 11 11 10 10 10 8 6 7 8 7 5 7 7 5 5 7 8 7 7 5 6 6 6 6 7 7 7 8 7 6 5 5 4 6
1 3 4 6 9 11 12 12 10 11 10 8 8 10 9 8 6 6 4 3 5 5 4 5 5 5 6 6 6 7 6 5 5 6 7 8 7 9 8 7 7 6 7
2 3 5 3 5 6 8 9 9 8 6 6 7 7 6 5 3 4 6 8 5 4 3 4 4 4 6 6 5 6 7 10 11 9 9 8 8 9 9 8 8 6 7
2 3 3 3 2 2 4 5 6 8 8 6 5 5 6 6 6 6 5 6 5 5 5 5 4 5 5 6 6 7 7 8 10 10 10 10 10 9 8 7 7 7 8
4 2 3 3 2 3 3 3 2 3 5 7 7 5 5 5 5 3 5 5 8 7 6 6 6 6 7 8 9 8 8 11 12 12 12 11 10 10 8 7 6 6 6
5 3 2 2 2 2 2 4 6 6 5 5 7 7 6 6 7 7 7 8 7 7 6 7 8 8 10 9 9 10 11 11 12 13 12 11 11 10 9 8 7 5 4
7 6 4 3 3 3 3 3 5 9 10 8 8 8 8 9 10 10 9 9 9 9 9 9 9 9 10 10 10 13 13 14 14 13 13 12 11 10 9 8 6 5 5
8 8 8 6 6 6 6 7 7 7 10 11 10 11 11 12 11 11 10 10 10 10 10 11 11 11 12 12 14 16 16 15 15 14 14 13 12 11 10 8 8 7 5
11 11 11 10 10 9 9 8 8 9 10 10 11 12 12 12 11 11 12 12 11 11 12 13 14 14 14 16 17 18 18 17 17 16 16 16 15 14 12 11 10 9 7
14 15 14 14 13 13 12 12 11 11 11 13 13 14 13 13 13 15 15 14 15 15 16 16 16 16 17 18 19 20 20 20 19 20 19 18 18 17 16 15 14 13 11
20 19 18 18 17 16 16 16 15 14 14 14 14 15 14 14 15 16 17 18 18 20 20 20 20 20 20 20 21 21 21 22 22 22 22 22 22 21 20 20 19 18 16
23 22 22 23 23 22 21 20 19 19 19 18 17 16 16 16 17 17 18 20 22 24 24 23 23 22 22 23 23 23 23 23 23 24 25 25 25 25 25 24 23 22 21
22 23 24 25 27 27 27 26 25 25 25 23 21 20 20 20 20 21 22 24 26 28 27 27 27 25 25 25 25 25 25 26 27 27 28 28 28 28 28 28 27 26 25
24 25 26 27 28 29 29 31 31 31 31 30 27 26 26 24 23 25 27 30 31 31 30 30 28 27 28 27 27 27 28 30 30 30 30 30 30 30 31 31 30 29 28
29 28 29 29 30 30 31 32 33 34 34 33 33 30 29 29 31 32 33 33 33 33 31 30 30 29 28 28 28 29 31 32 32 33 33 33 33 33 33 33 33 32 32
31 32 32 31 30 30 30 31 33 33 33 34 33 32 32 33 34 36 36 37 35 33 31 31 29 29 31 29 29 31 32 33 34 35 35 36 36 36 35 35 33 33 33
33 33 31 30 29 29 29 28 29 31 32 32 32 31 31 34 35 38 40 41 39 36 34 33 34 34 32 32 31 32 32 33 34 34 36 37 38 38 37 36 36 35 34
35 33 30 29 28 28 28 27 26 27 28 28 28 29 30 31 31 32 34 37 38 39 38 37 37 37 37 36 35 33 36 35 32 34 35 36 38 38 38 38 37 37 38
30 28 28 28 28 27 26 26 25 25 26 25 25 25 27 27 27 27 28 30 32 34 36 38 39 40 40 40 39 38 36 36 39 37 39 39 38 37 38 39 39 38 38
28 27 26 25 25 25 25 25 26 26 26 25 24 24 24 25 26 25 26 27 29 30 31 32 34 36 38 40 42 41 40 39 40 38 41 44 44 42 40 39 39 39 38
24 23 23 24 24 24 24 24 24 24 24 23 22 22 23 24 24 24 23 24 25 26 27 27 28 29 30 32 33 35 38 40 41 41 40 42 45 44 42 40 39 40 39

GFSGL_850_spd_276.txt.gz
Wind_Speed
7 7 7 7 6 4 2 4 6 9 10 10 11 9 8 9 15 21 20 17 16 14 5 3 3 2 11 11 10 9 10 8 8 5 5 7 5 1 2 3 4 6 8
7 8 8 8 6 4 2 1 5 8 11 12 11 10 8 8 10 8 4 7 11 9 9 8 8 12 13 10 8 9 8 6 3 4 4 6 6 3 3 3 4 6 8
7 7 8 8 8 7 5 2 2 7 10 11 13 12 11 11 8 7 6 9 10 8 9 11 10 10 8 4 3 4 6 5 6 6 5 6 6 6 5 5 5 6 8
6 8 8 9 10 10 9 7 5 7 8 10 13 13 12 10 9 9 7 5 5 5 8 6 5 5 4 3 4 4 5 6 6 6 7 7 8 9 8 7 6 6 8
6 7 9 10 11 11 12 13 12 10 9 9 10 12 10 10 8 7 6 5 6 6 7 5 5 5 5 5 6 5 5 5 6 4 4 8 8 9 9 9 7 7 9
5 6 8 9 10 12 13 14 14 14 13 12 11 12 11 10 7 6 6 8 6 3 4 3 4 3 4 5 4 4 4 4 4 3 6 7 8 9 8 9 8 7 6
3 4 5 7 9 13 12 13 14 14 15 13 12 11 11 10 10 9 9 7 7 5 4 3 2 2 3 3 4 5 5 5 6 7 7 9 8 9 9 8 8 7 7
3 3 4 5 7 9 11 12 11 11 12 12 12 12 11 10 9 6 6 6 6 5 4 2 1 2 2 4 5 4 5 5 6 6 8 9 10 10 10 9 9 10 8
2 2 3 4 5 6 7 7 9 10 9 10 11 10 9 10 8 6 5 6 5 3 2 3 4 4 4 5 4 4 5 7 9 10 10 9 10 11 10 9 9 9 7
2 2 1 2 4 6 5 5 6 7 7 7 8 8 7 9 7 4 6 6 6 4 4 4 4 4 5 6 5 6 5 7 10 11 12 11 11 11 10 8 6 6 6
4 3 2 2 4 5 6 6 6 5 6 7 8 8 8 6 7 6 5 6 5 6 6 5 5 4 5 5 6 8 10 10 11 13 12 12 11 11 10 9 8 8 6
6 6 5 4 4 5 6 7 8 9 8 7 7 7 6 7 8 8 7 7 7 7 7 8 6 7 8 8 9 9 10 11 13 13 13 13 12 12 11 10 10 9 7
7 7 7 7 6 6 6 6 7 8 12 11 10 11 11 11 12 10 10 10 10 10 9 9 9 10 10 10 11 12 13 14 15 15 16 16 14 14 13 12 11 9 7
9 10 10 10 9 8 8 8 8 8 9 11 12 12 13 13 13 13 12 13 13 13 12 11 12 13 14 13 13 14 15 16 16 17 18 17 16 16 15 15 13 11 11
13 13 13 12 13 12 11 11 10 10 11 12 12 13 13 12 11 13 13 13 14 15 16 16 16 16 17 16 17 18 19 19 20 21 20 19 20 20 19 18 17 16 16
19 18 16 16 16 16 16 15 15 14 14 15 15 15 15 14 15 14 15 16 17 18 19 19 19 19 19 19 19 20 21 22 22 23 23 22 23 23 23 23 23 22 20
22 20 20 20 19 19 20 21 20 18 18 19 19 17 18 17 18 18 18 19 19 21 23 23 22 21 21 20 21 21 21 21 22 24 25 26 26 27 28 28 27 26 26
22 22 23 22 21 21 22 23 24 25 25 23 22 22 21 20 20 21 22 25 26 27 27 25 24 24 23 23 24 23 23 23 25 27 28 28 29 29 30 30 31 30 29
19 20 21 22 23 23 24 26 27 27 29 29 26 27 25 24 24 26 28 31 31 29 28 27 25 24 23 24 24 25 26 26 26 27 27 28 28 29 31 31 31 31 31
20 22 22 23 25 26 27 28 29 29 29 30 31 29 27 29 32 32 33 34 35 34 32 30 27 26 25 25 25 25 26 29 30 30 30 30 29 31 32 32 32 33 34
22 24 26 27 28 29 29 29 28 29 29 30 29 28 29 30 32 33 35 36 36 36 36 33 31 29 28 27 26 27 28 29 30 31 31 32 32 33 33 33 33 34 35
24 24 26 29 30 30 29 28 28 28 28 28 27 26 26 29 30 32 33 35 36 36 36 36 35 34 33 31 30 29 30 30 31 31 31 32 34 33 33 34 35 36 36
28 28 28 28 28 29 29 28 27 27 26 25 25 25 25 26 27 28 28 29 31 32 33 34 35 36 36 36 35 33 33 32 30 30 33 33 33 34 34 33 35 36 37
27 28 28 27 26 25 25 26 25 24 24 23 23 23 23 23 23 24 24 24 25 27 28 29 30 30 32 35 36 37 37 35 33 32 32 34 35 34 38 37 36 36 36
27 27 25 22 28 27 24 23 22 22 22 22 21 21 21 21 21 22 22 23 24 24 24 25 27 28 28 29 30 32 33 32 33 35 35 35 38 38 37 39 40 38 36
22 22 22 21 23 22 22 22 21 21 21 20 19 18 18 19 18 19 19 20 20 20 20 20 21 22 22 24 25 25 25 26 26 27 30 34 37 39 38 38 38 39 40

GFSGL_850_spd_279.txt.gz
Wind_Speed
6 6 6 5 3 1 2 3 4 6 7 14 10 5 3 11 19 18 15 15 15 18 11 9 6 10 16 15 12 9 8 10 8 7 7 8 9 6 2 3 3 4 6
7 7 7 6 5 3 1 3 5 8 8 13 14 12 9 13 13 18 18 16 7 8 10 10 7 11 8 11 9 7 7 8 8 8 10 12 10 8 7 6 5 4 7
7 8 8 9 8 6 3 2 5 9 10 10 13 14 12 15 15 13 10 9 15 13 11 10 8 10 10 9 4 5 7 6 6 5 6 10 10 10 9 9 6 6 6
6 7 8 10 10 8 7 6 7 9 10 11 13 13 13 13 11 9 8 8 9 9 11 10 7 5 6 5 6 6 6 8 8 7 7 9 11 12 12 9 8 7 6
6 8 8 10 11 11 11 10 12 11 11 13 13 12 12 11 10 8 9 8 7 6 8 7 7 6 6 5 3 3 4 6 7 7 8 11 13 14 13 13 10 7 7
6 6 8 10 12 12 13 12 12 13 13 13 13 12 11 10 8 6 6 8 9 9 6 7 6 6 5 4 3 4 5 5 7 7 9 11 13 14 13 12 10 10 7
5 5 6 8 12 12 12 13 14 13 14 14 14 13 12 10 8 11 10 8 7 6 5 5 4 4 4 3 4 4 5 6 7 7 7 9 10 10 11 12 12 7 5
4 5 5 7 7 11 11 11 11 12 12 12 11 13 12 11 12 10 8 8 7 5 4 3 3 3 4 4 5 6 6 7 7 7 10 10 12 12 12 10 9 9 8
4 4 4 4 5 7 8 8 9 10 9 9 10 10 9 10 7 6 8 8 7 6 4 3 5 7 6 6 6 6 6 7 9 11 12 11 13 13 12 11 12 12 10
3 4 3 4 5 6 6 6 7 8 9 9 9 7 6 7 6 7 7 9 8 7 6 5 6 7 7 7 7 7 7 7 9 12 12 13 13 12 11 12 10 9 7
3 2 2 3 4 5 6 6 6 7 8 7 10 9 9 9 8 5 5 7 6 7 8 8 6 6 7 7 7 8 9 9 11 12 12 13 13 14 14 13 12 11 8
4 4 3 2 2 3 4 6 8 8 7 7 8 8 7 7 7 7 6 7 8 9 8 8 8 8 8 8 9 10 11 12 12 13 14 14 14 14 14 14 13 11 10
7 5 4 4 3 3 5 6 7 8 11 11 10 10 10 9 9 10 10 10 10 10 10 9 10 10 10 11 12 12 12 12 13 14 15 16 16 16 16 15 14 13 13
9 8 8 6 6 5 5 6 7 8 9 11 13 13 13 13 13 13 13 13 12 12 12 13 12 12 12 13 14 15 15 16 16 16 17 19 19 19 18 17 17 16 16
10 10 10 10 9 8 8 8 8 9 10 11 13 15 15 14 13 14 14 14 13 13 15 16 16 15 15 15 16 17 18 19 20 20 20 20 20 22 22 21 21 19 19
15 14 13 13 12 12 12 12 11 10 12 13 13 14 15 14 16 17 17 17 17 17 19 19 18 17 17 17 18 19 21 22 22 22 22 22 23 24 24 25 24 24 23
17 15 16 16 16 16 16 16 16 16 17 17 16 16 16 15 15 18 19 20 20 22 22 21 20 19 18 18 19 19 20 20 22 24 25 26 26 28 29 29 29 28 28
16 15 16 17 17 17 17 18 19 20 21 22 21 21 21 20 19 19 20 23 25 26 24 22 22 21 21 21 20 20 20 21 23 24 26 26 26 27 29 30 29 29 29
13 14 13 15 16 17 18 19 20 22 24 25 24 26 24 25 25 25 26 29 29 28 26 24 22 21 21 21 22 22 23 24 25 25 25 26 26 28 29 29 29 30 30
11 12 13 15 16 18 20 21 23 25 26 27 26 25 24 27 31 32 32 33 33 32 30 28 25 23 22 22 23 23 25 26 27 28 28 28 28 28 30 30 30 30 31
9 10 12 15 17 18 21 23 24 26 27 28 27 25 24 27 30 31 32 33 34 34 32 30 29 28 26 26 25 26 26 26 27 28 28 28 30 31 30 32 32 31 32
13 20 23 25 23 23 24 25 25 26 26 26 26 24 24 28 27 28 29 30 31 31 31 32 31 31 30 29 29 29 29 29 29 28 28 29 29 31 32 32 32 33 34
18 21 24 25 25 24 22 20 21 22 23 23 23 23 22 24 25 24 24 25 26 27 28 28 29 30 29 29 30 31 32 32 30 29 30 30 30 31 31 32 32 32 33
27 23 21 22 23 24 25 25 24 22 22 21 20 20 20 21 21 21 21 21 23 24 25 26 26 27 26 27 28 28 29 31 31 30 31 32 32 31 32 33 33 32 32
20 20 20 21 21 21 21 21 19 19 18 18 16 17 17 18 19 19 20 20 21 21 22 23 24 24 24 25 26 26 26 27 27 26 27 29 31 32 33 33 33 33 33
19 19 19 19 18 15 14 13 13 13 13 13 13 12 12 12 13 13 13 14 15 16 16 16 18 18 19 20 20 21 21 21 22 22 22 24 26 27 28 30 32 34 34

GFSGL_850_spd_285.txt.gz
Wind_Speed
8 7 6 6 4 3 1 3 3 3 6 9 10 10 10 12 17 17 15 15 16 17 19 17 16 18 16 16 19 16 11 13 16 9 9 10 8 9 4 3 0 1 3
8 8 9 8 7 2 1 2 3 5 6 9 8 9 10 14 13 14 13 12 14 20 22 14 19 20 13 12 7 9 9 12 10 9 8 11 10 8 6 5 4 3 1
8 9 9 8 7 5 1 4 5 5 4 11 11 9 7 10 12 11 11 9 12 10 5 6 6 7 8 6 7 8 6 6 8 8 8 12 12 9 9 9 6 4 3
8 9 9 9 9 7 2 5 8 7 6 10 11 5 1 7 12 14 12 10 9 12 13 11 10 7 7 9 8 7 7 7 7 7 8 11 12 14 12 9 8 7 6
8 10 10 10 10 10 8 6 10 11 12 12 11 10 13 12 13 11 11 11 15 12 9 9 9 7 6 6 7 7 8 6 8 9 9 11 13 13 12 13 11 10 7
7 9 11 11 12 12 11 10 10 12 12 12 14 15 12 11 11 9 10 9 9 8 7 7 8 7 8 8 7 6 7 7 8 10 12 12 12 12 16 14 15 12 9
7 9 11 12 12 13 13 11 10 11 13 12 12 12 12 9 9 8 8 8 9 8 8 8 7 7 8 8 6 7 8 9 10 11 11 10 11 11 13 15 15 11 5
7 9 10 12 12 12 12 12 12 11 12 10 9 8 7 7 6 7 7 7 7 7 6 5 5 6 6 6 7 9 10 11 11 12 11 10 11 12 13 11 10 13 8
7 8 10 11 12 11 11 11 10 10 10 9 8 6 6 6 7 7 6 7 5 4 4 4 4 5 5 6 8 9 9 10 11 11 11 12 13 15 16 18 18 15 11
8 8 8 9 11 10 10 11 9 7 8 8 8 6 6 8 8 6 5 6 5 4 3 3 4 6 7 9 11 10 9 9 9 11 11 13 14 15 17 17 14 14 11
9 9 9 9 8 8 9 9 10 10 9 7 3 1 1 3 3 2 5 6 5 6 6 7 8 8 8 8 10 10 10 11 10 10 12 14 14 15 15 16 18 16 14
10 10 10 10 9 9 9 8 8 9 9 8 7 6 4 4 5 5 6 6 6 8 9 10 9 9 10 10 11 11 11 11 12 13 14 14 14 16 17 17 17 17 17
10 10 10 10 10 10 11 11 10 10 10 10 9 9 8 8 8 9 8 9 10 11 12 13 13 13 14 14 14 13 12 13 13 15 16 16 15 16 18 18 18 18 18
10 9 9 8 8 8 8 9 10 10 11 12 12 12 12 13 12 12 13 14 14 15 16 16 17 16 16 16 16 15 16 16 17 17 19 19 19 20 20 20 21 21 23
13 13 11 10 10 9 8 8 8 9 10 11 11 13 15 15 15 17 17 17 18 19 20 21 20 20 20 19 18 17 18 19 19 19 20 21 23 23 23 23 24 24 26
15 15 13 12 12 12 11 11 10 10 10 10 11 12 12 13 15 17 18 19 20 21 22 22 21 21 21 21 21 20 20 21 21 22 23 24 25 25 25 27 28 28 28
16 15 15 16 16 15 15 14 13 13 13 14 14 15 14 15 17 18 19 20 23 25 25 24 24 23 22 23 23 23 22 20 22 24 26 26 27 28 29 30 30 31 32
16 16 17 18 18 18 17 16 16 16 17 16 17 19 18 18 20 22 23 25 27 28 29 27 25 22 22 23 24 24 24 24 24 25 26 27 27 28 30 32 32 33 33
15 12 16 18 19 18 17 16 16 16 16 16 16 18 20 22 23 26 27 30 31 31 30 31 28 25 23 23 23 24 24 24 26 28 29 28 28 28 30 30 30 31 32
17 17 19 19 18 18 16 14 8 9 12 15 18 19 20 23 24 25 27 28 30 31 30 29 30 29 28 27 26 25 26 26 26 28 30 30 30 30 32 31 30 30 30
19 18 17 18 16 16 15 14 11 13 18 25 30 31 28 23 23 25 25 23 24 27 28 27 27 28 28 28 28 29 29 30 30 30 31 31 31 32 31 32 32 31 32
21 17 16 15 13 13 14 17 17 19 21 23 23 21 22 22 21 20 20 22 22 24 24 25 26 25 25 25 26 28 30 31 32 32 32 32 32 32 32 33 32 31 31
19 18 20 17 15 16 17 18 20 21 20 18 18 19 19 20 20 21 20 19 20 20 20 21 21 21 20 21 22 24 26 27 27 28 30 31 31 32 32 32 32 32 32
16 17 17 18 19 19 19 17 16 14 13 13 13 13 13 13 12 13 13 14 15 15 15 16 17 17 17 18 19 20 22 23 23 24 24 25 27 28 29 31 32 32 32
12 13 15 15 14 12 11 10 9 8 8 8 7 7 8 8 9 10 10 10 11 11 11 13 14 15 14 14 15 16 17 17 18 20 21 23 24 24 24 26 26 26 26
8 9 8 8 7 6 5 4 3 2 3 4 5 5 6 7 7 8 9 9 10 10 10 11 12 14 15 15 16 17 17 18 19 20 21 23 24 24 25 25 25 26 26

GFSGL_850_spd_291.txt.gz
Wind_Speed
7 7 6 5 4 4 2 4 6 6 4 8 10 11 18 15 18 22 15 16 18 18 17 19 17 17 17 15 10 10 10 9 11 6 7 11 10 9 7 6 3 2 4
6 8 7 5 3 4 4 6 7 7 10 11 12 17 16 17 20 20 19 14 14 17 18 17 16 14 19 14 10 10 9 7 10 11 13 11 12 12 10 5 3 5 4
7 7 8 7 4 6 6 8 9 8 10 12 15 17 22 20 19 16 16 15 13 11 14 9 13 10 12 15 11 8 9 9 8 9 9 11 13 13 10 8 10 8 6
9 8 8 7 6 8 8 8 9 11 10 11 14 17 21 18 19 19 16 13 10 13 11 15 10 8 7 9 10 10 7 8 7 8 7 9 12 13 15 14 11 10 9
8 8 8 9 11 11 12 10 10 13 12 14 12 14 17 18 17 14 13 14 16 12 9 9 11 9 8 7 8 6 5 5 6 8 7 7 12 16 14 12 13 12 11
8 9 9 11 12 14 16 15 14 14 13 14 15 16 13 11 10 11 8 9 9 8 10 9 7 6 6 5 5 7 6 5 6 7 8 10 9 11 12 14 15 16 14
9 9 10 11 13 16 18 16 14 14 14 15 16 15 17 16 14 13 12 12 14 11 8 8 8 6 5 5 5 4 5 6 8 7 9 9 11 10 11 15 16 15 13
11 10 10 10 13 15 17 19 18 18 18 17 16 13 12 13 10 9 7 9 10 10 7 5 5 4 4 4 5 6 6 8 10 9 9 10 11 11 12 11 12 15 15
11 11 11 11 11 13 14 16 16 15 15 15 14 13 10 8 7 4 7 7 7 7 5 2 1 2 3 4 5 7 9 9 9 10 10 11 12 12 12 14 19 18 19
11 10 11 11 11 10 11 12 13 13 12 10 7 6 6 8 9 8 8 5 4 3 3 4 4 3 3 6 8 9 11 11 11 11 11 12 12 13 14 15 17 19 18
11 10 10 9 9 10 9 9 9 8 9 9 7 7 8 8 9 8 7 6 8 6 6 6 6 7 7 8 8 8 9 10 11 12 12 12 13 13 14 16 19 20 20
10 9 9 9 8 7 7 7 7 7 6 5 3 2 2 4 5 4 4 5 6 7 8 9 9 9 9 9 9 10 10 10 11 11 12 12 13 14 15 16 19 22 22
10 9 9 9 8 8 8 7 6 6 6 6 4 4 5 4 4 5 5 5 7 8 8 9 10 10 11 12 13 13 13 14 14 13 13 13 14 15 17 18 20 23 24
10 10 9 9 8 7 7 6 6 7 7 7 7 7 6 7 7 7 7 8 9 10 11 12 13 14 14 15 15 15 14 14 15 15 16 16 17 17 19 20 21 23 26
12 11 10 9 8 7 6 6 6 6 7 7 7 8 8 9 10 10 11 13 13 13 14 15 16 15 15 16 17 16 16 16 16 16 16 17 19 20 20 22 23 25 28
13 12 10 9 8 8 7 7 6 6 6 6 6 6 7 7 8 9 10 12 13 14 15 15 16 16 16 16 16 17 17 17 18 19 19 19 20 21 22 24 26 27 29
14 13 13 12 10 9 8 7 7 8 9 9 9 8 8 10 11 12 13 15 16 16 16 16 16 17 16 16 16 17 17 17 19 20 21 21 22 21 22 24 26 29 30
15 14 13 13 13 12 12 11 10 12 13 13 12 11 11 10 9 10 13 16 17 19 19 18 17 17 18 18 18 19 20 20 20 20 21 22 23 24 24 25 26 28 29
15 15 15 15 14 14 14 15 13 13 14 13 13 13 11 8 8 12 18 21 20 18 18 18 18 18 18 18 18 20 21 22 23 23 23 24 24 25 26 27 27 28 29
15 16 16 16 14 12 14 16 15 14 13 11 10 10 13 12 11 13 17 17 16 15 15 15 14 15 16 17 18 18 19 20 21 22 23 24 24 26 27 27 28 29 29
19 18 17 16 14 12 11 11 13 12 11 10 8 10 13 10 13 15 11 10 10 11 12 12 13 13 14 15 16 16 16 17 17 18 18 20 21 23 25 26 28 29 31
16 15 15 14 13 11 9 5 5 7 6 6 7 8 10 10 7 5 6 7 8 9 10 11 11 12 13 15 16 16 17 17 17 18 18 19 19 20 20 21 24 25 27
11 13 13 12 10 9 8 9 10 10 8 8 6 5 4 2 3 4 5 5 6 7 8 8 9 9 10 11 12 13 15 16 17 18 19 19 20 20 20 22 22 23 25
9 10 11 12 11 9 10 10 10 9 7 5 4 3 3 3 3 4 4 5 6 7 8 9 11 12 13 14 15 16 17 18 19 19 19 20 20 20 21 21 22 23 24
10 11 12 12 12 11 11 11 9 8 7 7 7 6 6 6 5 5 5 6 8 9 10 12 13 13 15 15 16 17 18 20 22 22 22 22 22 22 21 20 20 22 23
9 10 11 12 11 11 10 9 10 10 10 10 9 8 8 7 8 8 8 8 9 10 11 12 13 14 15 16 17 18 19 20 20 21 21 20 21 21 22 22 23 23 23